Zurück zum Katalog

COSMOS 507

AktivMilitärLEO
NORAD 6120·PAYLOAD·🇷🇺 Russia

Gestartet Jul 20, 1972 von Plesetsk Cosmodrome

Loading…

Nächste Überflüge (nächste 24 Stunden)

TLE

AktuellSource: Space-Track

Epoche: Sep 14, 2026, 06:42 UTC

1 06120U 72057D   26257.27978225 -.00000022  00000-0 -37459-4 0  9992
2 06120  74.0244  88.7698 0053596 112.3181 358.5336 12.52658051476110

Verfolge COSMOS 507 in Echtzeit mit AllMySat

Download on the App Store